Location: Orangeville
(43.9200°N, 80.0943°W)
Time: 09:44:11
(UTC-05:00)

ISS - Pass Details

Date: 05 December 2021
Orbit: 413 x 422 km, 51.6° (Epoch: 24 January)

Event Time Altitude Azimuth Distance (km) Brightness Sun altitude
Rises 17:16:27 0° 303° (WNW) 2,384 0.6 -6.2°
Reaches altitude 10° 17:18:39 10° 311° (NW) 1,515 -0.6 -6.5°
Maximum altitude 17:21:52 38° 21° (NNE) 661 -3.1 -7.1°
Drops below altitude 10° 17:25:04 10° 92° (E) 1,505 -1.5 -7.6°
Enters shadow 17:25:36 - 95° (E) 1,714 -1.2 -7.7°
